Weather History for McComb, MS

Change the Weather History Date:

Thursday, March 29, 2012

  Actual Average Record
Temperature  
Mean Temperature 70 °F -  
Max Temperature 80 °F 73 °F 86 °F (1974)
Min Temperature 62 °F 51 °F 34 °F (1955)
Cooling Degree Days 6    
Growing Degree Days 20 (Base 50)    
Moisture  
Dew Point 63 °F    
Average Humidity 86    
Maximum Humidity 100    
Minimum Humidity 50    
Precipitation  
Precipitation 0.03 in - - ()
Sea Level Pressure  
Sea Level Pressure 29.99 in    
Wind  
Wind Speed 2 mph (SSE)    
Max Wind Speed 9 mph    
Max Gust Speed -    
Visibility 6 miles    
Events Fog , Rain    
Averages and records for this station are not official NWS values.
T = Trace of Precipitation, MM = Missing Value Source: NWS Daily Summary

Daily Weather History Graph

Daily Weather History Graph

Search for Another Location

Airport:

Trip Planner

Search our weather history database for the weather conditions in past years. The results will help you decide how hot, cold, wet, or windy it might be!

Date:

Astronomy

Mar. 29, 2012 Rise Set
Actual Time 6:53 AM CDT 7:19 PM CDT
Civil Twilight 6:29 AM CDT 7:43 PM CDT
Nautical Twilight 6:01 AM CDT 8:12 PM CDT
Astronomical Twilight 5:32 AM CDT 8:41 PM CDT
Moon 11:21 AM CDT (3/29) 12:51 AM CDT (3/29)
Length of Visible Light 13h 14m
Length of Day
12h 25m
Waxing Crescent, 39% of the Moon is Illuminated
Mar 29
Waxing Crescent
Mar 30
First Quarter
Apr 6
Full
Apr 13
Last Quarter
Apr 21
New

Hourly Weather History & Observations

Time (CDT) Temp. Dew Point Humidity Pressure Visibility Wind Dir Wind Speed Gust Speed Precip Events Conditions
12:53 AM 64.0 °F 62.1 °F 93% 30.02 in 8.0 mi Calm Calm - N/A   Clear
1:53 AM 63.0 °F 62.1 °F 97% 30.01 in 5.0 mi Calm Calm - N/A   Mostly Cloudy
2:33 AM 62.6 °F 62.6 °F 100% 30.02 in 6.0 mi Calm Calm - N/A   Scattered Clouds
2:44 AM 62.6 °F 62.6 °F 100% 30.01 in 5.0 mi Calm Calm - N/A   Mostly Cloudy
2:53 AM 63.0 °F 62.1 °F 97% 30.00 in 5.0 mi Calm Calm - N/A   Mostly Cloudy
3:07 AM 62.6 °F 62.6 °F 100% 30.02 in 5.0 mi Calm Calm - N/A   Mostly Cloudy
3:17 AM 62.6 °F 62.6 °F 100% 30.01 in 5.0 mi Calm Calm - N/A   Overcast
3:53 AM 63.0 °F 62.1 °F 97% 30.00 in 5.0 mi Calm Calm - N/A   Overcast
4:06 AM 62.6 °F 62.6 °F 100% 30.02 in 5.0 mi Calm Calm - N/A   Overcast
4:32 AM 62.6 °F 62.6 °F 100% 30.01 in 1.8 mi Calm Calm - N/A   Overcast
4:41 AM 62.6 °F 62.6 °F 100% 30.02 in 0.2 mi Calm Calm - N/A Fog Fog
4:53 AM 64.0 °F 64.0 °F 100% 30.00 in 0.2 mi Calm Calm - N/A Fog Fog
5:53 AM 64.0 °F 64.0 °F 100% 30.00 in 0.2 mi Calm Calm - N/A Fog Fog
6:53 AM 63.0 °F 63.0 °F 100% 30.01 in 0.2 mi Calm Calm - N/A Fog Fog
7:53 AM 64.0 °F 64.0 °F 100% 30.02 in 0.2 mi Calm Calm - N/A Fog Fog
8:53 AM 64.0 °F 64.0 °F 100% 30.02 in 0.2 mi Calm Calm - N/A Fog Fog
9:40 AM 64.4 °F 64.4 °F 100% 30.04 in 0.8 mi Calm Calm - N/A   Mist
9:53 AM 64.9 °F 64.9 °F 100% 30.03 in 1.0 mi Calm Calm - N/A   Overcast
10:07 AM 64.4 °F 64.4 °F 100% 30.05 in 2.5 mi Calm Calm - N/A   Overcast
10:15 AM 64.4 °F 64.4 °F 100% 30.05 in 4.0 mi Calm Calm - N/A   Overcast
10:51 AM 66.2 °F 64.4 °F 94% 30.05 in 9.0 mi South 3.5 mph - N/A   Overcast
10:53 AM 66.9 °F 64.9 °F 93% 30.04 in 9.0 mi Variable 3.5 mph - N/A   Overcast
11:25 AM 71.6 °F 64.4 °F 78% 30.04 in 10.0 mi South 4.6 mph - N/A   Mostly Cloudy
11:37 AM 71.6 °F 62.6 °F 73% 30.04 in 10.0 mi Calm Calm - N/A   Scattered Clouds
11:53 AM 73.9 °F 63.0 °F 68% 30.02 in 10.0 mi Variable 4.6 mph - N/A   Scattered Clouds
12:09 PM 75.2 °F 62.6 °F 65% 30.03 in 10.0 mi SE 5.8 mph - N/A   Mostly Cloudy
12:19 PM 75.2 °F 64.4 °F 69% 30.02 in 10.0 mi ESE 6.9 mph - N/A   Mostly Cloudy
12:53 PM 75.9 °F 61.0 °F 60% 30.00 in 10.0 mi South 9.2 mph - N/A   Scattered Clouds
1:53 PM 77.0 °F 60.1 °F 56% 29.97 in 10.0 mi Variable 5.8 mph - N/A   Partly Cloudy
2:53 PM 77.0 °F 57.9 °F 52% 29.94 in 10.0 mi SSE 4.6 mph - N/A   Partly Cloudy
3:53 PM 79.0 °F 59.0 °F 50% 29.91 in 10.0 mi South 9.2 mph - N/A   Clear
4:53 PM 79.0 °F 59.0 °F 50% 29.90 in 10.0 mi South 5.8 mph - N/A   Clear
5:53 PM 77.0 °F 60.1 °F 56% 29.90 in 10.0 mi South 5.8 mph - N/A   Partly Cloudy
6:53 PM 73.0 °F 61.0 °F 66% 29.91 in 10.0 mi Calm Calm - N/A   Clear
7:53 PM 70.0 °F 60.1 °F 71% 29.93 in 10.0 mi SE 4.6 mph - N/A   Clear
8:53 PM 68.0 °F 62.1 °F 81% 29.94 in 10.0 mi SSE 5.8 mph - N/A   Partly Cloudy
9:53 PM 69.1 °F 64.0 °F 84% 29.95 in 10.0 mi SSE 6.9 mph - N/A   Clear
10:53 PM 69.1 °F 64.9 °F 87% 29.94 in 10.0 mi SSE 5.8 mph - N/A   Scattered Clouds
11:27 PM 68.0 °F 64.4 °F 88% 29.95 in 10.0 mi SSW 6.9 mph - 0.00 in Rain Light Rain
11:36 PM 66.2 °F 64.4 °F 94% 29.95 in 7.0 mi SSW 5.8 mph - 0.01 in Rain Rain
11:53 PM 66.0 °F 64.9 °F 96% 29.93 in 9.0 mi Calm Calm - 0.03 in Rain Light Rain